Location: Caltech
(34.1382°N, 118.1253°W)
Time: 15:32:34
(UTC-07:00)

Saudisat 1A - Visible Passes

Search period start: 26 May 2016 00:00
Search period end: 05 June 2016 00:00
Orbit: 563 x 631 km, 64.6° (Epoch: 26 May)

Date Brightness Start Highest point End Pass type
(mag) Time Alt. Az. Time Alt. Az. Time Alt. Az.
26 May 10.4 01:18:43 10° N 01:21:22 21° NNE 01:21:22 21° NNE visible
26 May 10.6 02:57:44 10° NW 02:57:58 11° NW 02:57:58 11° NW visible
27 May 10.2 01:28:28 10° NNW 01:30:38 24° N 01:30:38 24° N visible
28 May 10.3 01:38:30 10° NNW 01:40:02 21° NNW 01:40:02 21° NNW visible
29 May 10.7 00:10:50 10° NNE 00:12:54 15° NE 00:12:54 15° NE visible
29 May 10.6 01:48:50 10° NW 01:49:32 14° NW 01:49:32 14° NW visible
30 May 10.4 00:20:11 10° N 00:22:26 21° NNE 00:22:26 21° NNE visible
31 May 10.2 00:30:01 10° NNW 00:32:05 25° N 00:32:05 25° N visible
01 Jun 10.3 00:40:08 10° NNW 00:41:45 22° NNW 00:41:45 22° NNW visible
01 Jun 10.3 23:12:10 10° N 23:14:50 17° NE 23:14:50 17° NE visible
02 Jun 10.6 00:50:32 10° NW 00:51:29 16° NW 00:51:29 16° NW visible
02 Jun 9.8 23:21:41 10° N 23:24:36 26° NNE 23:24:36 26° NNE visible
03 Jun 9.5 23:31:35 10° NNW 23:34:25 35° N 23:34:25 35° N visible
04 Jun 10.5 22:04:44 10° NNE 22:06:17 11° NE 22:07:37 10° ENE visible
04 Jun 9.7 23:41:46 10° NNW 23:44:16 32° NW 23:44:16 32° NW visible
